DECAYED

STARLINK-1088, 44966 (Decayed)

Orbit data source: Space-Track

STARLINK-1088, 44966 was a payload satellite owned by SpaceX/Seattle (US) in LEO that was launched on Tue, 07 Jan 2020 UTC via an FALCON 9 launch vehicle from the Air Force Eastern Test Range (AFETR). Payload-class satellites include a variety of spacecraft equipped with specific instruments for various scientific and technological missions. These include communications satellites like Starlink; space stations such as the ISS; scientific satellites like the Hubble; Earth observation satellites from companies like Planet Labs, Umbra, and HawkEye 360; GPS; miniature CubeSats for education and research; and military/defense satellites.

Not visible in the next 10 days
Identifier
44966, 2020-001BE
Orbit
Decayed
Country
Flag of USUS
Related business
Manufacturer
SpaceX/Seattle
Mission
Decayed Commercial Communications
Bus & Motor
STARLINK, Unknown motor
Mass
260 kg wet, ~248 kg dry
Launch date (UTC)
2020-01-07 (7 years ago)
Launch vehicle
FALCON 9
Launch site
Air Force Eastern Test Range (AFETR)
Object type
Payload
Rocket body
Debris
Shape & HBR
Box + 1 Pan, 10.1 m
Radar Cross Section
13.562 m², Large (>1 m²)

Expand to show TLE details & history
Last TLE update: 1 year ago

TLE from 1 year ago
0 STARLINK-1088
1 44966U 20001BE  25111.52022064  .12573141  12571-4  32981-3 0  9993
2 44966  53.0410 160.4360 0004875 312.3245 197.6441 16.45563434294006
Epoch: 2025-04-21T12:29Z
TLE epoch observation values (Epoch: 2025-04-21T12:29:07.063Z)
Latitude
23.65077°
Longitude
-75.8016°
Altitude
154.907 km
Speed
7.815 km/s
True Right ascension
21h 25m 14s
True Declination
23° 30' 47"
Sunlit
Object was in daylight at epoch
Visualization orbit readout
Latitude
Unknown
Longitude
Unknown
Altitude
Unknown
Speed
Unknown
Apparent Right ascension
Unknown
Apparent Declination
Unknown
Sunlit
N/A
Visualization observer readout
Local Sidereal Time
19:05:40
Azimuth
Unknown
Elevation
Unknown
Doppler factor
Unknown
Orbital elements
Apogee altitude
154.517 km
Perigee altitude
148.151 km
Semi-major axis
6,529.471 km
Eccentricity
0.00049
Inclination
53.041°
RAAN
160.436°
Arg. of periapsis
312.3245°
True anomaly
197.62718°
Mean anomaly
197.6441°
Eccentric anomaly
197.63564°
Mean motion
4.11364 °/min
Orbital period
87.51 mins
BSTAR
0.00032981
Loading maneuver chart data...
Computing Atmospheric mass density...

Documentation

Showing up to 5 results
|